Location: Deurze
(52.9838°N, 6.6090°E)
Time: 19:02:43
(UTC+00:00)

Cosmos 2278 Rocket - Pass Details

Date: 11 March 2026
Orbit: 838 x 846 km, 71.0° (Epoch: 20 April)

Event Time Altitude Azimuth Distance (km) Brightness Sun altitude
Rises 18:30:14 0° 213° (SSW) 3,387 5.7 -9.8°
Reaches altitude 10° 18:32:40 10° 214° (SW) 2,458 5.0 -10.2°
Maximum altitude 18:38:19 81° 302° (WNW) 861 2.3 -11.0°
Drops below altitude 10° 18:44:02 10° 30° (NNE) 2,478 4.4 -11.9°
Sets 18:46:29 0° 32° (NNE) 3,418 5.1 -12.2°
